Weather History for Kankakee, IL

Change the Weather History Date:

Tuesday, December 24, 2013

  Actual Average Record
Temperature  
Mean Temperature 10 °F -  
Max Temperature 19 °F 30 °F 60 °F (1982)
Min Temperature 0 °F 16 °F -26 °F (1983)
Degree Days  
Heating Degree Days 56    
Moisture  
Dew Point 3 °F    
Average Humidity 74    
Maximum Humidity 80    
Minimum Humidity 67    
Precipitation  
Precipitation 0.00 in - - ()
Sea Level Pressure  
Sea Level Pressure 30.50 in    
Wind  
Wind Speed 11 mph (SW)    
Max Wind Speed 16 mph    
Max Gust Speed 21 mph    
Visibility 10 miles    
Events      
Averages and records for this station are not official NWS values.
T = Trace of Precipitation, MM = Missing Value Source: NWS Daily Summary

Daily Weather History Graph

Daily Weather History Graph

Search for Another Location

Airport:

Trip Planner

Search our weather history database for the weather conditions in past years. The results will help you decide how hot, cold, wet, or windy it might be!

Date:

Astronomy

Dec. 24, 2013 Rise Set
Actual Time 7:14 AM CST 4:27 PM CST
Civil Twilight 6:43 AM CST 4:59 PM CST
Nautical Twilight 6:08 AM CST 5:33 PM CST
Astronomical Twilight 5:35 AM CST 6:07 PM CST
Moon 11:39 PM CST (12/24) 11:05 AM CST (12/24)
Length of Visible Light 10h 15m
Length of Day
9h 13m
Waning Gibbous, 58% of the Moon is Illuminated
Dec 24
Waning Gibbous
Dec 25
Last Quarter
Jan 1
New
Jan 7
First Quarter
Jan 15
Full

Hourly Weather History & Observations

Time (CST) Temp. Windchill Dew Point Humidity Pressure Visibility Wind Dir Wind Speed Gust Speed Precip Events Conditions
12:15 AM 2.1 °F -16.0 °F -4.2 °F 75% 30.48 in 10.0 mi West 13.8 mph - N/A   Clear
12:35 AM 2.1 °F -16.6 °F -4.4 °F 74% 30.47 in 10.0 mi West 15.0 mph - N/A   Clear
12:55 AM 2.1 °F -17.3 °F -4.5 °F 74% 30.48 in 10.0 mi West 16.1 mph 20.7 mph N/A   Clear
1:15 AM 2.1 °F -17.3 °F -4.9 °F 72% 30.48 in 10.0 mi West 16.1 mph 20.7 mph N/A   Clear
1:35 AM 2.1 °F -15.2 °F -4.9 °F 72% 30.48 in 10.0 mi WNW 12.7 mph - N/A   Clear
1:55 AM 2.3 °F -15.0 °F -3.8 °F 76% 30.49 in 10.0 mi West 12.7 mph - N/A   Scattered Clouds
2:15 AM 2.3 °F -14.2 °F -3.3 °F 77% 30.50 in 10.0 mi West 11.5 mph - N/A   Mostly Cloudy
2:35 AM 2.3 °F -15.0 °F -3.1 °F 78% 30.50 in 7.0 mi West 12.7 mph 16.1 mph N/A   Mostly Cloudy
2:55 AM 1.8 °F -14.9 °F -4.7 °F 74% 30.50 in 10.0 mi West 11.5 mph - N/A   Mostly Cloudy
3:15 AM 1.8 °F -15.7 °F -4.5 °F 75% 30.50 in 10.0 mi West 12.7 mph 16.1 mph N/A   Clear
3:35 AM 1.6 °F -15.1 °F -4.5 °F 76% 30.50 in 10.0 mi West 11.5 mph - N/A   Clear
3:55 AM 1.6 °F -15.9 °F -4.4 °F 76% 30.50 in 10.0 mi West 12.7 mph - N/A   Clear
4:15 AM 1.4 °F -16.1 °F -4.4 °F 77% 30.50 in 10.0 mi West 12.7 mph - N/A   Clear
4:35 AM 1.4 °F -15.3 °F -4.4 °F 77% 30.50 in 10.0 mi West 11.5 mph - N/A   Clear
4:55 AM 1.4 °F -16.9 °F -4.0 °F 78% 30.51 in 10.0 mi West 13.8 mph - N/A   Clear
5:15 AM 1.2 °F -14.7 °F -4.0 °F 79% 30.51 in 10.0 mi West 10.4 mph - N/A   Clear
5:35 AM 1.2 °F -14.7 °F -4.2 °F 78% 30.51 in 10.0 mi West 10.4 mph - N/A   Clear
5:55 AM 1.2 °F -12.7 °F -4.4 °F 77% 30.52 in 10.0 mi West 8.1 mph - N/A   Clear
6:15 AM 1.2 °F -15.6 °F -4.0 °F 79% 30.54 in 10.0 mi West 11.5 mph - N/A   Clear
6:35 AM 1.0 °F -14.9 °F -4.4 °F 78% 30.54 in 10.0 mi West 10.4 mph 17.3 mph N/A   Clear
6:55 AM 0.9 °F -16.8 °F -4.4 °F 79% 30.54 in 10.0 mi West 12.7 mph - N/A   Clear
7:15 AM 0.5 °F -15.6 °F -5.1 °F 77% 30.54 in 10.0 mi West 10.4 mph - N/A   Clear
7:35 AM 0.5 °F -14.6 °F -5.1 °F 77% 30.54 in 10.0 mi West 9.2 mph - N/A   Clear
7:55 AM 1.2 °F -13.7 °F -4.5 °F 77% 30.54 in 10.0 mi West 9.2 mph - N/A   Clear
8:15 AM 2.1 °F -13.6 °F -4.0 °F 76% 30.56 in 10.0 mi West 10.4 mph - N/A   Clear
8:35 AM 2.3 °F -11.4 °F -4.0 °F 75% 30.56 in 10.0 mi West 8.1 mph - N/A   Clear
8:55 AM 3.2 °F -13.1 °F -3.3 °F 74% 30.57 in 10.0 mi West 11.5 mph - N/A   Clear
9:15 AM 3.7 °F -9.6 °F -3.1 °F 73% 30.57 in 10.0 mi West 8.1 mph - N/A   Clear
9:35 AM 4.6 °F -10.4 °F -2.4 °F 73% 30.58 in 10.0 mi West 10.4 mph - N/A   Clear
9:55 AM 5.7 °F -9.1 °F -1.3 °F 73% 30.59 in 10.0 mi West 10.4 mph - N/A   Clear
10:15 AM 7.0 °F -7.5 °F -0.4 °F 72% 30.59 in 10.0 mi West 10.4 mph - N/A   Clear
10:35 AM 8.2 °F -5.1 °F 0.7 °F 71% 30.58 in 10.0 mi West 9.2 mph - N/A   Mostly Cloudy
10:55 AM 9.3 °F -3.8 °F 1.4 °F 70% 30.57 in 10.0 mi West 9.2 mph - N/A   Scattered Clouds
11:15 AM 9.9 °F 0.2 °F 1.8 °F 70% 30.56 in 10.0 mi West 5.8 mph - N/A   Scattered Clouds
11:35 AM 11.1 °F 3.1 °F 2.7 °F 69% 30.55 in 10.0 mi West 4.6 mph - N/A   Clear
11:55 AM 11.1 °F 3.1 °F 3.0 °F 70% 30.55 in 10.0 mi WSW 4.6 mph - N/A   Clear
12:15 PM 13.5 °F 4.4 °F 4.6 °F 68% 30.55 in 10.0 mi SW 5.8 mph - N/A   Clear
12:35 PM 14.0 °F 5.1 °F 5.0 °F 67% 30.54 in 10.0 mi WSW 5.8 mph - N/A   Clear
12:55 PM 14.5 °F 4.6 °F 5.7 °F 68% 30.54 in 10.0 mi SW 6.9 mph - N/A   Clear
1:15 PM 15.4 °F 5.6 °F 6.6 °F 68% 30.52 in 10.0 mi SW 6.9 mph - N/A   Clear
1:35 PM 15.6 °F 7.0 °F 7.0 °F 69% 30.52 in 10.0 mi SSW 5.8 mph - N/A   Clear
1:55 PM 16.0 °F 5.3 °F 7.0 °F 68% 30.52 in 10.0 mi SSW 8.1 mph - N/A   Clear
2:15 PM 16.5 °F 6.9 °F 7.5 °F 68% 30.52 in 10.0 mi SW 6.9 mph - N/A   Clear
2:35 PM 16.5 °F 11.0 °F 7.5 °F 68% 30.51 in 10.0 mi South 3.5 mph - N/A   Clear
2:55 PM 17.4 °F 8.0 °F 8.4 °F 68% 30.52 in 10.0 mi South 6.9 mph - N/A   Clear
3:15 PM 16.7 °F 7.2 °F 7.7 °F 68% 30.51 in 10.0 mi South 6.9 mph - N/A   Clear
3:35 PM 16.5 °F 6.0 °F 7.9 °F 69% 30.50 in 10.0 mi South 8.1 mph - N/A   Clear
3:55 PM 15.6 °F 5.9 °F 7.7 °F 71% 30.48 in 10.0 mi SE 6.9 mph - N/A   Clear
4:15 PM 14.9 °F 6.1 °F 7.7 °F 73% 30.48 in 10.0 mi SSE 5.8 mph - N/A   Clear
4:35 PM 14.7 °F 5.9 °F 7.7 °F 74% 30.49 in 10.0 mi SSE 5.8 mph - N/A   Clear
4:55 PM 14.5 °F 5.7 °F 8.1 °F 75% 30.48 in 10.0 mi SSE 5.8 mph - N/A   Clear
5:15 PM 14.2 °F 6.7 °F 8.6 °F 78% 30.48 in 10.0 mi SE 4.6 mph - N/A   Clear
5:35 PM 14.0 °F 5.1 °F 8.6 °F 79% 30.49 in 10.0 mi South 5.8 mph - N/A   Clear
5:55 PM 14.5 °F 7.1 °F 9.3 °F 80% 30.49 in 10.0 mi SSE 4.6 mph - N/A   Clear
6:15 PM 14.5 °F 4.6 °F 9.3 °F 80% 30.47 in 10.0 mi SE 6.9 mph - N/A   Clear
6:35 PM 14.9 °F 4.0 °F 9.5 °F 79% 30.47 in 10.0 mi SE 8.1 mph - N/A   Scattered Clouds
6:55 PM 15.6 °F 4.0 °F 10.0 °F 79% 30.47 in 10.0 mi SSE 9.2 mph - N/A   Scattered Clouds
7:15 PM 15.8 °F 4.2 °F 10.4 °F 79% 30.47 in 10.0 mi South 9.2 mph - N/A   Scattered Clouds
7:35 PM 16.0 °F 4.4 °F 10.4 °F 79% 30.47 in 10.0 mi SSE 9.2 mph - N/A   Mostly Cloudy
7:55 PM 16.5 °F 5.1 °F 10.4 °F 77% 30.45 in 10.0 mi SSE 9.2 mph - N/A   Overcast
8:15 PM 17.1 °F 5.8 °F 10.6 °F 76% 30.45 in 10.0 mi SSE 9.2 mph - N/A   Overcast
8:35 PM 17.2 °F 6.8 °F 10.6 °F 75% 30.45 in 10.0 mi SSE 8.1 mph - N/A   Overcast
8:55 PM 17.4 °F 7.1 °F 10.4 °F 74% 30.44 in 10.0 mi SE 8.1 mph - N/A   Overcast
9:15 PM 17.6 °F 7.3 °F 10.4 °F 73% 30.42 in 10.0 mi SE 8.1 mph - N/A   Overcast
9:35 PM 18.1 °F 5.6 °F 10.4 °F 72% 30.41 in 10.0 mi SSE 11.5 mph 17.3 mph N/A   Overcast
9:55 PM 18.5 °F 6.1 °F 10.4 °F 71% 30.41 in 10.0 mi SSE 11.5 mph - N/A   Overcast
10:15 PM 18.5 °F 5.5 °F 10.2 °F 70% 30.42 in 10.0 mi SSE 12.7 mph 17.3 mph N/A   Overcast
10:35 PM 18.5 °F 6.8 °F 10.6 °F 71% 30.42 in 10.0 mi SSE 10.4 mph - N/A   Scattered Clouds
10:55 PM 18.5 °F 5.5 °F 10.6 °F 71% 30.39 in 10.0 mi SE 12.7 mph - N/A   Clear
11:15 PM 19.0 °F 8.2 °F 11.3 °F 72% 30.39 in 10.0 mi SSE 9.2 mph - N/A   Mostly Cloudy
11:35 PM 19.4 °F 7.9 °F 11.3 °F 71% 30.38 in 10.0 mi SE 10.4 mph - N/A   Overcast
11:55 PM 19.4 °F 7.9 °F 11.7 °F 72% 30.37 in 10.0 mi SSE 10.4 mph - N/A   Overcast